Other Public Products
Issued by NWS Grand Forks, ND

Home | Current Version | Previous Version | Text Only | Print | Product List | Glossary Off
Versions: 1 2 3 4 5 6 7 8 9 10 11 12 13 14 15 16 17 18 19 20 21 22 23 24 25 26 27 28 29 30 31 32 33 34 35 36 37 38 39 40 41 42 43 44 45 46 47 48 49 50

000
FPUS83 KFGF 300031
OPUFGF
PRAIRIE TO PINES WEATHER ROUNDUP
NATIONAL WEATHER SERVICE EASTERN NORTH DAKOTA/GRAND FORKS ND
700 PM CDT MON MAY 29 2017

 **SATELLITE DATA USED TO AUGMENT SKY COVER AT AUTOMATED STATIONS**
 *****  WEATHER ACROSS EASTERN NORTH DAKOTA  *****

CITY           SKY/WX    TMP DP  RH WIND       PRES   REMARKS
GRAND FORKS    CLOUDY    54  46  74 NW14      29.88F
6HR MIN TEMP:  53; 6HR MAX TEMP:  60; 6HR PCP: TRACE;

GRAND FORKS AF CLOUDY    52  43  71 N17G24    29.89F
GRAND CITY NWS NOT AVBL
BUXTON           N/A     54  50  88 N5G16       N/A
DEVILS LAKE    CLOUDY    54  45  71 N12       29.94S
FARGO          CLOUDY    57  46  66 NW18      29.88F
6HR MIN TEMP:  54; 6HR MAX TEMP:  61; 6HR PCP: TRACE;

WAHPETON ARPT  CLOUDY    55  41  58 NW15G26   29.91R
$$

 *****  WEATHER ACROSS CENTRAL AND WESTERN NORTH DAKOTA  *****

CITY           SKY/WX    TMP DP  RH WIND       PRES   REMARKS
JAMESTOWN      CLOUDY    58  42  55 N17       29.93F
6HR MIN TEMP:  54; 6HR MAX TEMP:  59; 6HR PCP: TRACE;

BISMARCK       PTSUNNY   66  37  34 N13G25    30.00F
6HR MIN TEMP:  61; 6HR MAX TEMP:  66;

MINOT          PTSUNNY   61  36  39 N16G28    29.97F
6HR MIN TEMP:  59; 6HR MAX TEMP:  68;

MINOT AFB      PTSUNNY   61  37  40 N18       29.96F
6HR MIN TEMP:  58; 6HR MAX TEMP:  65;

GARRISON         N/A     63  35  35 N22G31    29.99S
6HR MIN TEMP:  58; 6HR MAX TEMP:  64;

WILLISTON      FAIR      69  28  21 N17G25    30.05F
6HR MIN TEMP:  62; 6HR MAX TEMP:  70;

DICKINSON      FAIR      63  27  25 NW17G25   30.04F
6HR MIN TEMP:  58; 6HR MAX TEMP:  65;

HETTINGER      FAIR      64  31  28 NW22G31   30.07F
6HR MIN TEMP:  58; 6HR MAX TEMP:  67;

$$

 *****  OTHER OBSERVATIONS NORTHEAST NORTH DAKOTA  *****

CITY           SKY/WX    TMP DP  RH WIND       PRES   REMARKS
WALHALLA       NOT AVBL
LANGDON        CLOUDY    48  46  93 N16G23    29.92S
CAVALIER       CLOUDY    48  43  81 NW21G28   29.89S
GRAFTON        CLOUDY    48  45  87 NW16G22   29.91S
CANDO          NOT AVBL
FORT TOTTEN      N/A     54  44  68 NW8       29.95
ROLLA          CLOUDY    52  43  71 N24       29.95S
RUGBY          NOT AVBL
 ***** THE ABOVE OBSERVATIONS ARE NON NWS ARE NOT QUALITY
        CONTROLLED AND MAY MIS-REPORT RAIN FOR SNOW...
$$

 *****  OTHER OBSERVATIONS SOUTHEAST NORTH DAKOTA *****

CITY           SKY/WX    TMP DP  RH WIND       PRES   REMARKS
COOPERSTOWN    CLOUDY    54  43  66 NW20      29.92F
VALLEY CITY    CLOUDY    55  45  67 N14G21    29.94S
OAKES          NOT AVBL
GWINNER        MOCLDY    59  41  51 MISG      29.93S
SHEYENNE NWR     N/A     57  46  67 N9        29.95S
BUFFALO          N/A     56  38  50 CALM        N/A
WYNDMERE         N/A     55  46  71 NW16        N/A
 ***** THE ABOVE OBSERVATIONS ARE NON NWS ARE NOT QUALITY
       CONTROLLED AND MAY MIS-REPORT RAIN FOR SNOW...
$$

  *****  WEATHER ACROSS NORTHERN MINNESOTA  *****

CITY           SKY/WX    TMP DP  RH WIND       PRES   REMARKS
FLAG ISLAND    CLOUDY    48  39  71 NW18      29.78S
WARROAD        CLOUDY    48  39  71 NW13G22   29.82R
ROSEAU         CLOUDY    48  39  71 NW16      29.82S
HALLOCK        CLOUDY    46  45  93 NW17      29.87S
THF RVR FALLS  CLOUDY    48  43  81 NW21G28   29.86S
HALSTAD          N/A     53  46  79 NW12        N/A
FOSSTON        CLOUDY    48  43  81 NW18G28   29.86S
BAUDETTE       CLOUDY    50  39  66 NW12      29.78S
6HR MIN TEMP:  50; 6HR MAX TEMP:  56;

WASKISH        CLOUDY    52  41  66 NW20G28   29.79S
CROOKSTON      CLOUDY    52  45  76 N21       29.88S
$$
  *****  WEATHER ACROSS CENTRAL AND WEST MINNESOTA  *****

CITY           SKY/WX    TMP DP  RH WIND       PRES   REMARKS
BEMIDJI        CLOUDY    51  44  76 W12G17    29.81F
PARK RAPIDS    LGT RAIN  54  44  69 NW15      29.83S
6HR MIN TEMP:  52; 6HR MAX TEMP:  59; 6HR PCP: TRACE;

WADENA         CLOUDY    54  45  71 W7        29.85S
DETROIT LAKES  PTSUNNY   52  46  82 NW15      29.88S
MOORHEAD       PTSUNNY   57  46  67 NW17      29.89S
FERGUS FALLS   CLOUDY    52  52 100 N13       29.89R
ELBOW LAKE     MOCLDY    57  46  66 NW18      29.89F
6HR MIN TEMP:  51; 6HR MAX TEMP:  58;

MORRIS MN      PTSUNNY   59  45  58 NW17      29.90S
STAPLES        CLOUDY    54  45  71 W12       29.84F
WHEATON        PTSUNNY   59  45  58 NW14G20   29.92F
$$
  *****  WEATHER ELSEWHERE ACROSS MINNESOTA  *****

CITY           SKY/WX    TMP DP  RH WIND       PRES   REMARKS
DULUTH         PTSUNNY   55  45  68 NW17G23   29.75S
6HR MIN TEMP:  54; 6HR MAX TEMP:  58; 6HR PCP: TRACE;

INTRNTL FALLS  CLOUDY    52  39  61 NW13      29.75S
6HR MIN TEMP:  52; 6HR MAX TEMP:  56;

ELY            CLOUDY    52  45  76 W7        29.72S
CLOQUET        CLOUDY    55  43  62 W13       29.78R
BRAINERD       CLOUDY    57  45  64 W12G22    29.83S
6HR MIN TEMP:  53; 6HR MAX TEMP:  58; 6HR PCP: TRACE;

HIBBING        CLOUDY    53  44  71 W13       29.76S
6HR MIN TEMP:  49; 6HR MAX TEMP:  55; 6HR PCP:  0.04;

ALEXANDRIA     CLOUDY    53  49  86 NW13      29.89F
6HR MIN TEMP:  51; 6HR MAX TEMP:  60; 6HR PCP:  0.04;

SAINT CLOUD    RAIN      53  50  89 NW15G24   29.87R FOG
6HR MIN TEMP:  58; 6HR MAX TEMP:  63;

MINNEAPOLIS    PTSUNNY   63  44  50 NW17G25   29.85R
6HR MIN TEMP:  58; 6HR MAX TEMP:  65; 6HR PCP: TRACE;

$$

  *****  WEATHER ACROSS SOUTH DAKOTA  *****

CITY           SKY/WX    TMP DP  RH WIND       PRES   REMARKS
SIOUX FALLS    PTSUNNY   62  46  55 NW15G22   29.98S
6HR MIN TEMP:  61; 6HR MAX TEMP:  67;

BROOKINGS      FAIR      61  45  55 NW16      29.97F
WATERTOWN      CLOUDY    61  40  45 NW17G24   29.95S
6HR MIN TEMP:  53; 6HR MAX TEMP:  62; 6HR PCP: TRACE;

HURON          PTSUNNY   66  37  34 N15       29.97S
6HR MIN TEMP:  58; 6HR MAX TEMP:  69; 6HR PCP: TRACE;

SISSETON         N/A     61  43  51 N18G32    29.91F
ABERDEEN       CLOUDY    64  34  32 NW22G30   29.96F
6HR MIN TEMP:  58; 6HR MAX TEMP:  66; 6HR PCP: TRACE;

MITCHELL       PTSUNNY   62  45  53 NW5       29.99F
PIERRE         FAIR      69  30  23 NW24G30   29.99F
6HR MIN TEMP:  64; 6HR MAX TEMP:  71;

MOBRIDGE       FAIR      67  33  28 NW15      29.99F
RAPID CITY     FAIR      68  28  22 N20G28    30.08F
6HR MIN TEMP:  65; 6HR MAX TEMP:  71;

$$

  *****  SOME WEATHER IN NEARBY STATES *****

CITY           SKY/WX    TMP DP  RH WIND       PRES   REMARKS
GLASGOW MT     FAIR      71  26  18 NW10      30.09F
6HR MIN TEMP:  63; 6HR MAX TEMP:  72;

GREAT FALLS MT FAIR      73  40  30 VRB7      30.09F
6HR MIN TEMP:  68; 6HR MAX TEMP:  77;

CHEYENNE WY    PTSUNNY   59  40  49 SE3       30.21F
6HR MIN TEMP:  55; 6HR MAX TEMP:  63; 6HR PCP:  0.04;

SCOTTSBLUFF NE FAIR      71  32  23 N22       30.12F
6HR MIN TEMP:  70; 6HR MAX TEMP:  74;

OMAHA NE       FAIR      72  39  30 NW20      29.98S
6HR MIN TEMP:  71; 6HR MAX TEMP:  76;

DES MOINES IA  FAIR      72  41  32 NW18G24   29.93R
6HR MIN TEMP:  72; 6HR MAX TEMP:  77;

DAVENPORT IA   FAIR      73  39  29 W23G31    29.88R
6HR MIN TEMP:  72; 6HR MAX TEMP:  75;

CHICAGO IL     FAIR      72  42  34 W13G23    29.84S
6HR MIN TEMP:  71; 6HR MAX TEMP:  77;

EAU CLAIRE WI  PTSUNNY   60  52  74 SW8       29.78S
6HR MIN TEMP:  56; 6HR MAX TEMP:  65; 6HR PCP:  0.08;

LA CROSSE WI   FAIR      64  51  62 W16       29.82R
6HR MIN TEMP:  58; 6HR MAX TEMP:  68; 6HR PCP:  0.07;

$$

  *****  SOME NATIONAL WEATHER *****

CITY           SKY/WX    TMP DP  RH WIND       PRES   REMARKS
LA GUARDIA NY  CLOUDY    58  53  84 NE8       30.06S
6HR MIN TEMP:  56; 6HR MAX TEMP:  59;

RALEIGH NC     MOCLDY    80  64  58 CALM      29.99R



USA.gov is the U.S. government's official web portal to all federal, state and local government web resources and services.